Time,TemperatureF,DewpointF,PressureIn,WindDirection,WindDirectionDegrees,WindSpeedMPH,WindSpeedGustMPH,Humidity,HourlyPrecipIn,Conditions,Clouds,dailyrainin,SoftwareType,DateUTC
2013-07-13 00:02:00,76.1,72.3,29.90,NW,326,0.0,0.0,88,0.00,,,0.00,VWS V14.01,2013-07-13 05:02:00,
2013-07-13 00:07:00,75.9,72.4,29.90,NW,326,0.0,0.0,89,0.00,,,0.00,VWS V14.01,2013-07-13 05:07:00,
2013-07-13 00:12:00,75.9,72.4,29.90,NW,326,0.0,0.0,89,0.00,,,0.00,VWS V14.01,2013-07-13 05:12:00,
2013-07-13 00:17:00,75.7,72.3,29.90,NW,326,0.0,0.0,89,0.00,,,0.00,VWS V14.01,2013-07-13 05:17:00,
2013-07-13 00:22:00,75.7,72.3,29.90,NW,326,0.0,0.0,89,0.00,,,0.00,VWS V14.01,2013-07-13 05:22:00,
2013-07-13 00:27:00,75.7,72.6,29.90,NW,326,0.0,0.0,90,0.00,,,0.00,VWS V14.01,2013-07-13 05:27:00,
2013-07-13 00:32:00,75.7,72.6,29.90,SE,135,4.0,5.4,90,0.00,,,0.00,VWS V14.01,2013-07-13 05:32:00,
2013-07-13 00:37:00,75.9,73.1,29.90,East,91,0.0,0.0,91,0.00,,,0.00,VWS V14.01,2013-07-13 05:37:00,
2013-07-13 00:42:00,75.9,73.4,29.90,SE,133,0.0,0.0,92,0.00,,,0.00,VWS V14.01,2013-07-13 05:42:00,
2013-07-13 00:47:00,76.1,73.6,29.90,SE,132,0.0,0.0,92,0.00,,,0.00,VWS V14.01,2013-07-13 05:47:00,
2013-07-13 00:52:00,76.1,73.6,29.90,East,80,0.0,0.0,92,0.00,,,0.00,VWS V14.01,2013-07-13 05:52:00,
2013-07-13 00:57:00,76.1,73.6,29.90,East,80,0.0,0.0,92,0.00,,,0.00,VWS V14.01,2013-07-13 05:57:00,
2013-07-13 01:02:00,76.1,73.6,29.90,East,80,0.0,0.0,92,0.00,,,0.00,VWS V14.01,2013-07-13 06:02:00,
2013-07-13 01:07:00,75.9,73.1,29.90,East,93,0.0,0.0,91,0.00,,,0.00,VWS V14.01,2013-07-13 06:07:00,
2013-07-13 01:12:00,75.9,72.8,29.90,East,98,0.0,0.0,90,0.00,,,0.00,VWS V14.01,2013-07-13 06:12:00,
2013-07-13 01:17:00,75.9,72.4,29.90,SSE,164,0.0,0.0,89,0.00,,,0.00,VWS V14.01,2013-07-13 06:17:00,
2013-07-13 01:22:00,75.7,71.6,29.90,SSE,164,0.0,0.0,87,0.00,,,0.00,VWS V14.01,2013-07-13 06:22:00,
2013-07-13 01:27:00,75.7,71.3,29.90,SSE,164,0.0,0.0,86,0.00,,,0.00,VWS V14.01,2013-07-13 06:27:00,
2013-07-13 01:32:00,75.4,70.9,29.90,WNW,299,0.0,0.0,86,0.00,,,0.00,VWS V14.01,2013-07-13 06:32:00,
2013-07-13 01:37:00,75.4,71.2,29.90,NNW,344,0.0,0.0,87,0.00,,,0.00,VWS V14.01,2013-07-13 06:37:00,
2013-07-13 01:42:00,75.2,71.1,29.87,NNW,344,0.0,0.0,87,0.00,,,0.00,VWS V14.01,2013-07-13 06:42:00,
2013-07-13 01:47:00,75.2,71.4,29.87,NNW,344,0.0,0.0,88,0.00,,,0.00,VWS V14.01,2013-07-13 06:47:00,
2013-07-13 01:52:00,75.2,71.4,29.87,NNW,344,0.0,0.0,88,0.00,,,0.00,VWS V14.01,2013-07-13 06:52:00,
2013-07-13 01:57:00,75.0,71.6,29.87,NNW,344,0.0,0.0,89,0.00,,,0.00,VWS V14.01,2013-07-13 06:57:00,
2013-07-13 02:02:00,74.8,71.4,29.87,NNW,344,0.0,0.0,89,0.00,,,0.00,VWS V14.01,2013-07-13 07:02:00,
2013-07-13 02:07:00,74.8,71.4,29.87,NNW,344,0.0,0.0,89,0.00,,,0.00,VWS V14.01,2013-07-13 07:07:00,
2013-07-13 02:12:00,74.8,71.4,29.87,NNW,344,0.0,0.0,89,0.00,,,0.00,VWS V14.01,2013-07-13 07:12:00,
2013-07-13 02:17:00,74.7,71.5,29.87,NNW,344,0.0,0.0,90,0.00,,,0.00,VWS V14.01,2013-07-13 07:17:00,
2013-07-13 02:22:00,74.7,71.5,29.87,NNW,344,0.0,0.0,90,0.00,,,0.00,VWS V14.01,2013-07-13 07:22:00,
2013-07-13 02:27:00,74.7,71.5,29.87,NNW,344,0.0,0.0,90,0.00,,,0.00,VWS V14.01,2013-07-13 07:27:00,
2013-07-13 02:32:00,74.7,71.5,29.87,NNW,344,0.0,0.0,90,0.00,,,0.00,VWS V14.01,2013-07-13 07:32:00,
2013-07-13 02:37:00,74.5,71.4,29.87,NNW,344,0.0,0.0,90,0.00,,,0.00,VWS V14.01,2013-07-13 07:37:00,
2013-07-13 02:42:00,74.5,71.4,29.87,NNW,344,0.0,0.0,90,0.00,,,0.00,VWS V14.01,2013-07-13 07:42:00,
2013-07-13 02:47:00,74.5,71.7,29.87,NNW,344,0.0,0.0,91,0.00,,,0.00,VWS V14.01,2013-07-13 07:47:00,
2013-07-13 02:52:00,74.5,71.4,29.87,NNW,344,0.0,0.0,90,0.00,,,0.00,VWS V14.01,2013-07-13 07:52:00,
2013-07-13 02:57:00,74.3,71.5,29.87,NNW,344,0.0,0.0,91,0.00,,,0.00,VWS V14.01,2013-07-13 07:57:00,
2013-07-13 03:02:00,74.3,71.5,29.87,NNW,344,0.0,0.0,91,0.00,,,0.00,VWS V14.01,2013-07-13 08:02:00,
2013-07-13 03:07:00,74.3,71.5,29.87,NNW,344,0.0,0.0,91,0.00,,,0.00,VWS V14.01,2013-07-13 08:07:00,
2013-07-13 03:12:00,74.3,71.5,29.87,NNW,344,0.0,0.0,91,0.00,,,0.00,VWS V14.01,2013-07-13 08:12:00,
2013-07-13 03:17:00,74.1,71.7,29.87,NNW,344,0.0,0.0,92,0.00,,,0.00,VWS V14.01,2013-07-13 08:17:00,
2013-07-13 03:22:00,74.1,71.7,29.87,NNW,344,0.0,0.0,92,0.00,,,0.00,VWS V14.01,2013-07-13 08:22:00,
2013-07-13 03:27:00,73.9,71.5,29.87,SSE,156,0.0,0.0,92,0.00,,,0.00,VWS V14.01,2013-07-13 08:27:00,
2013-07-13 03:32:00,73.9,71.5,29.87,SSE,157,0.0,0.0,92,0.00,,,0.00,VWS V14.01,2013-07-13 08:32:00,
2013-07-13 03:37:00,73.9,71.2,29.87,SSE,157,0.0,0.0,91,0.00,,,0.00,VWS V14.01,2013-07-13 08:37:00,
2013-07-13 03:42:00,73.8,71.0,29.87,SSE,157,0.0,0.0,91,0.00,,,0.00,VWS V14.01,2013-07-13 08:42:00,
2013-07-13 03:47:00,73.8,70.7,29.87,SSE,157,0.0,0.0,90,0.00,,,0.00,VWS V14.01,2013-07-13 08:47:00,
2013-07-13 03:52:00,73.8,70.3,29.87,SSE,157,0.0,0.0,89,0.00,,,0.00,VWS V14.01,2013-07-13 08:52:00,
2013-07-13 03:57:00,73.6,69.8,29.87,SSE,157,0.0,0.0,88,0.00,,,0.00,VWS V14.01,2013-07-13 08:57:00,
2013-07-13 04:02:00,73.6,69.8,29.87,SSE,157,0.0,0.0,88,0.00,,,0.00,VWS V14.01,2013-07-13 09:02:00,
2013-07-13 04:07:00,73.4,69.6,29.87,SSE,157,0.0,0.0,88,0.00,,,0.00,VWS V14.01,2013-07-13 09:07:00,
2013-07-13 04:12:00,73.2,69.5,29.87,SSE,157,0.0,0.0,88,0.00,,,0.00,VWS V14.01,2013-07-13 09:12:00,
2013-07-13 04:17:00,73.2,69.8,29.87,SSE,157,0.0,0.0,89,0.00,,,0.00,VWS V14.01,2013-07-13 09:17:00,
2013-07-13 04:22:00,73.2,69.8,29.87,SSE,157,0.0,0.0,89,0.00,,,0.00,VWS V14.01,2013-07-13 09:22:00,
2013-07-13 04:27:00,73.0,69.6,29.87,SSE,157,0.0,0.0,89,0.00,,,0.00,VWS V14.01,2013-07-13 09:27:00,
2013-07-13 04:32:00,73.0,69.6,29.87,SSE,157,0.0,0.0,89,0.00,,,0.00,VWS V14.01,2013-07-13 09:32:00,
2013-07-13 04:37:00,72.9,69.8,29.87,SSE,157,0.0,0.0,90,0.00,,,0.00,VWS V14.01,2013-07-13 09:37:00,
2013-07-13 04:42:00,72.9,69.8,29.87,SSE,157,0.0,0.0,90,0.00,,,0.00,VWS V14.01,2013-07-13 09:42:00,
2013-07-13 04:47:00,72.7,69.6,29.87,SSE,157,0.0,0.0,90,0.00,,,0.00,VWS V14.01,2013-07-13 09:47:00,
2013-07-13 04:52:00,72.9,69.8,29.87,SSE,157,0.0,0.0,90,0.00,,,0.00,VWS V14.01,2013-07-13 09:52:00,
2013-07-13 04:57:00,72.7,69.6,29.87,SSE,157,0.0,0.0,90,0.00,,,0.00,VWS V14.01,2013-07-13 09:57:00,
2013-07-13 05:02:00,72.5,69.4,29.87,SSE,157,0.0,0.0,90,0.00,,,0.00,VWS V14.01,2013-07-13 10:02:00,
2013-07-13 05:07:00,72.5,69.7,29.87,SSE,157,0.0,0.0,91,0.00,,,0.00,VWS V14.01,2013-07-13 10:07:00,
2013-07-13 05:12:00,72.5,69.7,29.87,SSE,157,0.0,0.0,91,0.00,,,0.00,VWS V14.01,2013-07-13 10:12:00,
2013-07-13 05:17:00,72.5,69.7,29.87,SSE,157,0.0,0.0,91,0.00,,,0.00,VWS V14.01,2013-07-13 10:17:00,
2013-07-13 05:22:00,72.5,69.7,29.87,SSE,157,0.0,0.0,91,0.00,,,0.00,VWS V14.01,2013-07-13 10:22:00,
2013-07-13 05:27:00,72.3,69.6,29.87,SSE,157,0.0,0.0,91,0.00,,,0.00,VWS V14.01,2013-07-13 10:27:00,
2013-07-13 05:32:00,72.3,69.6,29.87,SSE,157,0.0,0.0,91,0.00,,,0.00,VWS V14.01,2013-07-13 10:32:00,
2013-07-13 05:37:00,72.1,69.4,29.87,SSE,157,0.0,0.0,91,0.00,,,0.00,VWS V14.01,2013-07-13 10:37:00,
2013-07-13 05:42:00,72.1,69.4,29.87,SSE,157,0.0,0.0,91,0.00,,,0.00,VWS V14.01,2013-07-13 10:42:00,
2013-07-13 05:47:00,72.1,69.4,29.87,SSE,157,0.0,0.0,91,0.00,,,0.00,VWS V14.01,2013-07-13 10:47:00,
2013-07-13 05:52:00,72.0,69.2,29.87,SSE,157,0.0,0.0,91,0.00,,,0.00,VWS V14.01,2013-07-13 10:52:00,
2013-07-13 05:57:00,72.0,69.2,29.87,SSE,157,0.0,0.0,91,0.00,,,0.00,VWS V14.01,2013-07-13 10:57:00,
2013-07-13 06:02:00,72.0,69.2,29.87,SSE,157,0.0,0.0,91,0.00,,,0.00,VWS V14.01,2013-07-13 11:02:00,
2013-07-13 06:07:00,72.0,69.2,29.87,SSE,157,0.0,0.0,91,0.00,,,0.00,VWS V14.01,2013-07-13 11:07:00,
2013-07-13 06:12:00,71.8,69.0,29.87,SSE,157,0.0,0.0,91,0.00,,,0.00,VWS V14.01,2013-07-13 11:12:00,
2013-07-13 06:16:00,71.8,69.0,29.87,SSE,157,0.0,0.0,91,0.00,,,0.00,VWS V14.01,2013-07-13 11:16:00,
2013-07-13 06:21:00,71.8,69.0,29.87,SSE,157,0.0,0.0,91,0.00,,,0.00,VWS V14.01,2013-07-13 11:21:00,
2013-07-13 06:26:00,71.6,69.2,29.87,SSE,157,0.0,0.0,92,0.00,,,0.00,VWS V14.01,2013-07-13 11:26:00,
2013-07-13 06:31:00,71.6,69.2,29.87,SSE,157,0.0,0.0,92,0.00,,,0.00,VWS V14.01,2013-07-13 11:31:00,
2013-07-13 06:36:00,71.8,69.3,29.87,SSE,157,0.0,0.0,92,0.00,,,0.00,VWS V14.01,2013-07-13 11:36:00,
2013-07-13 06:41:00,71.8,69.3,29.90,SSE,157,0.0,0.0,92,0.00,,,0.00,VWS V14.01,2013-07-13 11:41:00,
2013-07-13 06:46:00,71.8,69.7,29.90,SSE,157,0.0,0.0,93,0.00,,,0.00,VWS V14.01,2013-07-13 11:46:00,
2013-07-13 06:51:00,71.8,69.7,29.90,SSE,157,0.0,0.0,93,0.00,,,0.00,VWS V14.01,2013-07-13 11:51:00,
2013-07-13 06:56:00,71.8,69.7,29.90,SSE,157,0.0,0.0,93,0.00,,,0.00,VWS V14.01,2013-07-13 11:56:00,
2013-07-13 07:01:00,71.8,70.0,29.90,SSE,157,0.0,0.0,94,0.00,,,0.00,VWS V14.01,2013-07-13 12:01:00,
2013-07-13 07:06:00,72.0,70.1,29.90,SSE,157,0.0,0.0,94,0.00,,,0.00,VWS V14.01,2013-07-13 12:06:00,
2013-07-13 07:11:00,72.0,70.1,29.90,SSE,157,0.0,0.0,94,0.00,,,0.00,VWS V14.01,2013-07-13 12:11:00,
2013-07-13 07:16:00,72.0,70.4,29.90,SSE,157,0.0,0.0,95,0.00,,,0.00,VWS V14.01,2013-07-13 12:16:00,
2013-07-13 07:21:00,72.1,70.6,29.90,SSE,157,0.0,0.0,95,0.00,,,0.00,VWS V14.01,2013-07-13 12:21:00,
2013-07-13 07:26:00,72.1,70.6,29.90,SSE,157,0.0,0.0,95,0.00,,,0.00,VWS V14.01,2013-07-13 12:26:00,
2013-07-13 07:31:00,72.3,70.8,29.90,SSE,157,0.0,0.0,95,0.00,,,0.00,VWS V14.01,2013-07-13 12:31:00,
2013-07-13 07:36:00,72.5,71.0,29.90,SSE,157,0.0,0.0,95,0.00,,,0.00,VWS V14.01,2013-07-13 12:36:00,
2013-07-13 07:41:00,72.7,71.5,29.90,SSE,157,0.0,0.0,96,0.00,,,0.00,VWS V14.01,2013-07-13 12:41:00,
2013-07-13 07:46:00,72.9,71.7,29.90,SSE,157,0.0,0.0,96,0.00,,,0.00,VWS V14.01,2013-07-13 12:46:00,
2013-07-13 07:51:00,73.0,71.8,29.90,SSE,157,0.0,0.0,96,0.00,,,0.00,VWS V14.01,2013-07-13 12:51:00,
2013-07-13 07:56:00,73.2,72.0,29.90,SSE,157,0.0,0.0,96,0.00,,,0.00,VWS V14.01,2013-07-13 12:56:00,
2013-07-13 08:01:00,73.4,71.9,29.90,SSE,157,0.0,0.0,95,0.00,,,0.00,VWS V14.01,2013-07-13 13:01:00,
2013-07-13 08:06:00,73.6,71.8,29.90,SE,138,0.0,0.0,94,0.00,,,0.00,VWS V14.01,2013-07-13 13:06:00,
2013-07-13 08:11:00,73.8,71.6,29.90,ENE,63,0.0,0.0,93,0.00,,,0.00,VWS V14.01,2013-07-13 13:11:00,
2013-07-13 08:16:00,73.9,70.5,29.90,ENE,63,0.0,0.0,89,0.00,,,0.00,VWS V14.01,2013-07-13 13:16:00,
2013-07-13 08:21:00,74.5,70.4,29.90,SE,135,0.0,0.0,87,0.00,,,0.00,VWS V14.01,2013-07-13 13:21:00,
2013-07-13 08:26:00,74.8,70.0,29.90,SE,129,0.0,0.0,85,0.00,,,0.00,VWS V14.01,2013-07-13 13:26:00,
2013-07-13 08:31:00,75.2,69.7,29.90,ESE,121,0.0,0.0,83,0.00,,,0.00,VWS V14.01,2013-07-13 13:31:00,
2013-07-13 08:36:00,75.7,69.5,29.90,North,5,0.0,0.0,81,0.00,,,0.00,VWS V14.01,2013-07-13 13:36:00,
2013-07-13 08:41:00,76.1,68.8,29.90,North,5,0.0,0.0,78,0.00,,,0.00,VWS V14.01,2013-07-13 13:41:00,
2013-07-13 08:46:00,76.6,68.9,29.90,SE,128,0.0,0.0,77,0.00,,,0.00,VWS V14.01,2013-07-13 13:46:00,
2013-07-13 08:51:00,77.0,68.9,29.90,ESE,121,0.0,3.1,76,0.00,,,0.00,VWS V14.01,2013-07-13 13:51:00,
2013-07-13 08:56:00,77.5,68.2,29.93,ESE,104,0.0,0.0,73,0.00,,,0.00,VWS V14.01,2013-07-13 13:56:00,
2013-07-13 09:01:00,77.7,68.0,29.93,South,174,0.0,0.0,72,0.00,,,0.00,VWS V14.01,2013-07-13 14:01:00,
2013-07-13 19:59:00,74.1,65.3,29.90,ESE,106,0.0,0.0,74,0.00,,,0.00,VWS V14.01,2013-07-14 00:59:00,
2013-07-13 20:04:00,74.1,65.7,29.90,ESE,106,0.0,0.0,75,0.00,,,0.00,VWS V14.01,2013-07-14 01:04:00,
2013-07-13 20:09:00,73.9,65.5,29.90,ESE,106,0.0,0.0,75,0.00,,,0.00,VWS V14.01,2013-07-14 01:09:00,
2013-07-13 20:14:00,73.9,65.9,29.90,ESE,106,0.0,0.0,76,0.00,,,0.00,VWS V14.01,2013-07-14 01:14:00,
2013-07-13 20:19:00,73.8,65.7,29.90,SE,129,0.0,0.0,76,0.00,,,0.00,VWS V14.01,2013-07-14 01:19:00,
2013-07-13 20:24:00,73.6,65.6,29.90,ESE,112,0.0,0.0,76,0.00,,,0.00,VWS V14.01,2013-07-14 01:24:00,
2013-07-13 20:29:00,73.6,65.6,29.90,North,0,0.0,0.0,76,0.00,,,0.00,VWS V14.01,2013-07-14 01:29:00,
2013-07-13 20:34:00,73.4,65.4,29.90,NNE,12,0.0,0.0,76,0.00,,,0.00,VWS V14.01,2013-07-14 01:34:00,
2013-07-13 20:39:00,73.2,65.2,29.90,NNE,12,0.0,0.0,76,0.00,,,0.00,VWS V14.01,2013-07-14 01:39:00,
2013-07-13 20:44:00,73.2,65.2,29.93,NNE,12,0.0,0.0,76,0.00,,,0.00,VWS V14.01,2013-07-14 01:44:00,
2013-07-13 20:49:00,73.0,65.4,29.93,NNE,12,0.0,0.0,77,0.00,,,0.00,VWS V14.01,2013-07-14 01:49:00,
2013-07-13 20:54:00,73.0,65.4,29.93,NNE,12,0.0,0.0,77,0.00,,,0.00,VWS V14.01,2013-07-14 01:54:00,
2013-07-13 20:59:00,73.0,65.4,29.93,NNE,12,0.0,0.0,77,0.00,,,0.00,VWS V14.01,2013-07-14 01:59:00,
2013-07-13 21:04:00,73.0,65.0,29.93,NNE,12,0.0,0.0,76,0.00,,,0.00,VWS V14.01,2013-07-14 02:04:00,
2013-07-13 21:09:00,72.9,65.2,29.93,NNE,12,0.0,0.0,77,0.00,,,0.00,VWS V14.01,2013-07-14 02:09:00,
2013-07-13 21:14:00,72.9,65.2,29.93,NNE,12,0.0,0.0,77,0.00,,,0.00,VWS V14.01,2013-07-14 02:14:00,
2013-07-13 21:19:00,72.7,65.1,29.93,NNE,12,0.0,0.0,77,0.00,,,0.00,VWS V14.01,2013-07-14 02:19:00,
2013-07-13 21:24:00,72.7,65.4,29.93,NNE,12,0.0,0.0,78,0.00,,,0.00,VWS V14.01,2013-07-14 02:24:00,
2013-07-13 21:29:00,72.5,64.9,29.93,NNE,12,0.0,0.0,77,0.00,,,0.00,VWS V14.01,2013-07-14 02:29:00,
2013-07-13 21:34:00,72.5,65.3,29.93,NNE,12,0.0,0.0,78,0.00,,,0.00,VWS V14.01,2013-07-14 02:34:00,
2013-07-13 21:39:00,72.5,65.3,29.93,NNE,12,0.0,0.0,78,0.00,,,0.00,VWS V14.01,2013-07-14 02:39:00,
2013-07-13 21:44:00,72.5,65.6,29.93,NNE,12,0.0,0.0,79,0.00,,,0.00,VWS V14.01,2013-07-14 02:44:00,
2013-07-13 21:49:00,72.3,65.4,29.93,NNE,12,0.0,0.0,79,0.00,,,0.00,VWS V14.01,2013-07-14 02:49:00,
2013-07-13 21:54:00,72.3,65.4,29.93,NNE,12,0.0,0.0,79,0.00,,,0.00,VWS V14.01,2013-07-14 02:54:00,
2013-07-13 21:59:00,72.1,65.6,29.93,NNE,12,0.0,0.0,80,0.00,,,0.00,VWS V14.01,2013-07-14 02:59:00,
2013-07-13 22:04:00,72.1,65.6,29.93,NNE,12,0.0,0.0,80,0.00,,,0.00,VWS V14.01,2013-07-14 03:04:00,
2013-07-13 22:09:00,72.1,66.0,29.93,NNE,12,0.0,0.0,81,0.00,,,0.00,VWS V14.01,2013-07-14 03:09:00,
2013-07-13 22:14:00,72.1,66.3,29.96,NNE,14,0.0,0.0,82,0.00,,,0.00,VWS V14.01,2013-07-14 03:14:00,
2013-07-13 22:19:00,72.3,66.5,29.96,NNE,14,0.0,0.0,82,0.00,,,0.00,VWS V14.01,2013-07-14 03:19:00,
2013-07-13 22:24:00,72.1,66.7,29.96,SE,127,0.0,0.0,83,0.00,,,0.00,VWS V14.01,2013-07-14 03:24:00,
2013-07-13 22:29:00,72.1,66.7,29.96,SE,133,0.0,0.0,83,0.00,,,0.00,VWS V14.01,2013-07-14 03:29:00,
2013-07-13 22:34:00,72.1,66.7,29.96,SE,133,0.0,0.0,83,0.00,,,0.00,VWS V14.01,2013-07-14 03:34:00,
2013-07-13 22:39:00,72.1,66.7,29.96,ENE,68,0.0,0.0,83,0.00,,,0.00,VWS V14.01,2013-07-14 03:39:00,
2013-07-13 22:44:00,72.1,67.0,29.96,ENE,64,0.0,0.0,84,0.00,,,0.00,VWS V14.01,2013-07-14 03:44:00,
2013-07-13 22:49:00,72.1,67.0,29.96,NE,43,0.0,0.0,84,0.00,,,0.00,VWS V14.01,2013-07-14 03:49:00,
2013-07-13 22:54:00,72.1,67.4,29.96,NE,43,0.0,0.0,85,0.00,,,0.00,VWS V14.01,2013-07-14 03:54:00,
2013-07-13 22:59:00,72.0,67.2,29.96,NE,43,0.0,0.0,85,0.00,,,0.00,VWS V14.01,2013-07-14 03:59:00,
2013-07-13 23:01:00,72.0,67.2,29.96,NE,43,0.0,0.0,85,0.00,,,0.00,VWS V14.01,2013-07-14 04:01:00,
2013-07-13 23:06:00,72.0,67.2,29.96,NE,43,0.0,0.0,85,0.00,,,0.00,VWS V14.01,2013-07-14 04:06:00,
2013-07-13 23:11:00,72.0,67.6,29.96,NE,43,0.0,0.0,86,0.00,,,0.00,VWS V14.01,2013-07-14 04:11:00,
2013-07-13 23:16:00,72.0,67.6,29.96,NE,43,0.0,0.0,86,0.00,,,0.00,VWS V14.01,2013-07-14 04:16:00,
2013-07-13 23:21:00,72.0,67.6,29.96,NE,35,0.0,0.0,86,0.00,,,0.00,VWS V14.01,2013-07-14 04:21:00,
2013-07-13 23:26:00,72.0,67.9,29.99,North,357,0.0,2.7,87,0.00,,,0.00,VWS V14.01,2013-07-14 04:26:00,
2013-07-13 23:31:00,72.0,67.9,29.99,East,85,0.0,2.7,87,0.00,,,0.00,VWS V14.01,2013-07-14 04:31:00,
2013-07-13 23:36:00,72.1,68.4,29.99,ENE,68,0.0,0.0,88,0.00,,,0.00,VWS V14.01,2013-07-14 04:36:00,
2013-07-13 23:41:00,72.1,68.7,29.99,ESE,111,0.0,0.0,89,0.00,,,0.00,VWS V14.01,2013-07-14 04:41:00,
2013-07-13 23:46:00,72.1,69.1,29.99,NE,55,0.0,0.0,90,0.00,,,0.00,VWS V14.01,2013-07-14 04:46:00,
2013-07-13 23:51:00,72.1,69.1,29.99,NNE,24,0.0,0.0,90,0.00,,,0.00,VWS V14.01,2013-07-14 04:51:00,
2013-07-13 23:56:00,72.3,69.2,29.99,East,96,0.0,0.0,90,0.00,,,0.00,VWS V14.01,2013-07-14 04:56:00,